Weather History for Montpelier, VT

Change the Weather History Date:

Tuesday, April 16, 2013

  Actual Average Record
Temperature  
Mean Temperature 49 °F 43 °F  
Max Temperature 57 °F 54 °F 84 °F (2002)
Min Temperature 41 °F 32 °F 18 °F (1992)
Degree Days  
Heating Degree Days 16 22  
Month to date heating degree days 454 411  
Since 1 July heating degree days 7067 7436  
Cooling Degree Days 0 0  
Month to date cooling degree days 0 0  
Year to date cooling degree days 0 0  
Moisture  
Dew Point 40 °F    
Average Humidity 68    
Maximum Humidity 86    
Minimum Humidity 50    
Precipitation  
Precipitation 0.09 in 0.09 in 0.64 in (1954)
Month to date precipitation 1.41 1.39  
Year to date precipitation 4.54 8.27  
Sea Level Pressure  
Sea Level Pressure 30.14 in    
Wind  
Wind Speed 10 mph (SSW)    
Max Wind Speed 20 mph    
Max Gust Speed 25 mph    
Visibility 10 miles    
Events Rain    
T = Trace of Precipitation, MM = Missing Value Source: NWS Daily Summary

Daily Weather History Graph

Daily Weather History Graph

Search for Another Location

Airport:

Trip Planner

Search our weather history database for the weather conditions in past years. The results will help you decide how hot, cold, wet, or windy it might be!

Date:

Astronomy

Apr. 16, 2013 Rise Set
Actual Time 6:04 AM EDT 7:36 PM EDT
Civil Twilight 5:34 AM EDT 8:06 PM EDT
Nautical Twilight 4:57 AM EDT 8:43 PM EDT
Astronomical Twilight 4:18 AM EDT 9:22 PM EDT
Moon 10:14 AM EDT (4/16) 12:36 AM EDT (4/16)
Length of Visible Light 14h 32m
Length of Day
13h 31m
Waxing Crescent, 33% of the Moon is Illuminated
Apr 16
Waxing Crescent
Apr 18
First Quarter
Apr 25
Full
May 2
Last Quarter
May 9
New

Hourly Weather History & Observations

Time (EDT) Temp. Windchill Dew Point Humidity Pressure Visibility Wind Dir Wind Speed Gust Speed Precip Events Conditions
12:51 AM 45.0 °F 39.7 °F 30.9 °F 58% 30.31 in 10.0 mi South 10.4 mph - N/A   Scattered Clouds
1:51 AM 44.1 °F 40.1 °F 30.9 °F 60% 30.32 in 10.0 mi SSW 6.9 mph - N/A   Mostly Cloudy
2:51 AM 41.0 °F 38.0 °F 30.9 °F 67% 30.31 in 10.0 mi SSW 4.6 mph - N/A   Clear
3:51 AM 41.0 °F 37.1 °F 30.9 °F 67% 30.31 in 10.0 mi South 5.8 mph - N/A   Partly Cloudy
4:51 AM 42.1 °F 38.4 °F 30.9 °F 65% 30.29 in 10.0 mi Variable 5.8 mph - N/A   Overcast
5:51 AM 42.1 °F 36.6 °F 30.9 °F 65% 30.28 in 10.0 mi South 9.2 mph - N/A   Overcast
6:51 AM 42.1 °F 36.6 °F 30.9 °F 65% 30.28 in 10.0 mi South 9.2 mph - N/A   Overcast
7:51 AM 44.1 °F 38.1 °F 30.9 °F 60% 30.27 in 10.0 mi South 11.5 mph - N/A   Overcast
8:51 AM 48.0 °F - 32.0 °F 54% 30.24 in 10.0 mi South 17.3 mph 21.9 mph N/A   Partly Cloudy
9:51 AM 46.0 °F 41.0 °F 30.9 °F 56% 30.23 in 10.0 mi South 10.4 mph - N/A   Overcast
10:51 AM 48.9 °F - 32.0 °F 52% 30.19 in 10.0 mi SSE 13.8 mph 21.9 mph N/A   Overcast
11:51 AM 51.1 °F - 34.0 °F 52% 30.15 in 10.0 mi South 10.4 mph 18.4 mph N/A   Overcast
12:51 PM 54.0 °F - 37.0 °F 53% 30.13 in 10.0 mi South 13.8 mph 20.7 mph N/A   Overcast
1:51 PM 54.0 °F - 39.9 °F 59% 30.10 in 10.0 mi South 15.0 mph - 0.00 in Rain Light Rain
2:51 PM 53.1 °F - 48.0 °F 83% 30.09 in 6.0 mi South 10.4 mph - 0.03 in Rain Light Rain
3:51 PM 54.0 °F - 48.9 °F 83% 30.06 in 10.0 mi South 11.5 mph - 0.01 in   Overcast
4:07 PM 53.6 °F - 48.2 °F 82% 30.03 in 10.0 mi SSW 15.0 mph 23.0 mph N/A   Overcast
4:23 PM 53.6 °F - 48.2 °F 82% 30.03 in 10.0 mi South 10.4 mph - N/A   Overcast
4:51 PM 54.0 °F - 48.9 °F 83% 30.05 in 10.0 mi South 12.7 mph - N/A   Overcast
5:51 PM 55.9 °F - 50.0 °F 80% 30.02 in 10.0 mi SSW 11.5 mph - N/A   Overcast
6:51 PM 57.0 °F - 50.0 °F 77% 29.99 in 10.0 mi SSW 10.4 mph 18.4 mph N/A   Overcast
7:51 PM 57.0 °F - 50.0 °F 77% 29.98 in 10.0 mi SSW 10.4 mph 18.4 mph N/A   Overcast
8:51 PM 55.0 °F - 52.0 °F 89% 30.01 in 7.0 mi Variable 6.9 mph 21.9 mph 0.00 in   Overcast
9:51 PM 55.0 °F - 52.0 °F 89% 30.04 in 4.0 mi WSW 9.2 mph - 0.04 in Rain Light Rain
10:08 PM 53.6 °F - 51.8 °F 94% 30.03 in 9.0 mi WSW 4.6 mph - 0.01 in Rain Light Rain
10:51 PM 53.1 °F - 45.0 °F 74% 30.07 in 10.0 mi West 8.1 mph 18.4 mph 0.01 in   Partly Cloudy
11:51 PM 48.9 °F - 42.1 °F 77% 30.10 in 10.0 mi West 8.1 mph - N/A   Partly Cloudy